Location: Seattle
(47.6064°N, 122.3308°W)
Time: 15:01:13
(UTC-08:00)

SR - Pass Details

Date: 03 December 2020
Orbit: 575 x 880 km, 66.7° (Epoch: 24 January)

Event Time Altitude Azimuth Distance (km) Brightness Sun altitude
Rises 18:12:26 0° 231° (SW) 2,825 ? -18.4°
Reaches altitude 10° 18:14:40 10° 238° (WSW) 1,955 ? -18.7°
Maximum altitude 18:18:53 45° 312° (NW) 872 ? -19.4°
Enters shadow 18:21:46 20° 16° (NNE) 1,506 ? -19.9°
